#timestamp,LO_Frequency,Hit,StdDev 
1610719215.2,286047001.0,N
1610719235.0,286046996.8,N
1610719235.9,286046996.8,N
1610719255.8,286046996.9,N
1610719275.6,286046997.6,N
1610719295.4,286046995.1,N
1610719315.3,286046998.8,N
1610719335.1,286046999.7,N
1610719355.9,286047002.7,N
1610719375.7,286047000.4,N
1610719395.5,286047001.5,N
1610719415.4,286047000.0,N
1610719435.2,286047001.7,N
1610719455.0,286047003.8,N
1610719455.9,286047003.8,N
1610719475.8,286047003.1,N
1610719495.6,286047001.5,N
1610719515.5,286047001.9,N
1610719535.3,286047005.1,N
1610719555.1,286047005.1,N
1610719575.9,286047002.0,N
1610719595.7,286047000.7,N
1610719615.6,286047000.6,N
1610719635.4,286047001.3,N
1610719655.2,286047002.3,N
1610719675.1,286047001.8,N
1610719676.0,286047001.8,N
1610719695.8,286047003.2,N
1610719715.6,286047003.7,N
1610719735.5,286047004.0,N
1610719755.3,286047000.0,N
1610719775.2,286047004.3,N
1610719795.9,286047005.2,N
1610719815.7,286047003.9,N
1610719835.6,286047003.0,N
1610719855.4,286047005.7,N
1610719875.2,286047004.0,N
1610719895.1,286047004.2,N
1610719896.0,286047004.2,N
1610719915.8,286047005.5,Y
1610719935.7,286047003.2,P
1610719955.5,286047003.4,P
1610719975.3,286047001.7,P
1610719995.2,286047001.0,N
1610720015.0,286046998.5,N
1610720015.9,286046998.5,N
1610720035.8,286047001.0,N
1610720055.6,286046998.1,N
1610720075.4,286047000.6,N
1610720095.3,286046998.7,N
1610720115.1,286047000.7,N
1610720135.9,286046996.7,N
1610720155.7,286046996.9,N
1610720175.5,286046996.9,N
1610720195.4,286046997.7,N
1610720215.2,286046996.5,N
1610720235.1,286046999.1,N
1610720236.0,286046999.1,N
1610720255.8,286046997.2,N
1610720275.6,286046997.5,N
1610720295.5,286047002.7,N
1610720315.3,286047003.9,N
1610720335.2,286047009.2,Y
1610720355.9,286047007.2,P
1610720375.7,286047002.1,N
1610720395.6,286047002.1,N
1610720415.4,286046998.2,N
1610720435.2,286047000.7,N
1610720455.1,286046999.3,N
1610720456.0,286046999.3,N
1610720475.8,286046996.5,N
1610720495.7,286047000.3,N
1610720515.5,286047002.0,N
1610720535.3,286047001.9,N
1610720555.2,286047000.2,N
1610720575.0,286047000.6,N
1610720575.9,286047000.6,N
1610720595.8,286046998.8,N
1610720615.6,286046999.1,N
1610720635.4,286046999.0,N
1610720655.3,286046997.8,N
1610720675.1,286046997.7,N
1610720695.8,286046999.6,N
1610720715.7,286046997.3,N
1610720735.5,286046994.9,N
1610720755.4,286046995.9,N
1610720775.2,286046996.1,N
1610720795.0,286046998.0,N
1610720795.9,286046998.0,N
1610720815.8,286046998.5,N
1610720835.6,286047001.2,N
1610720855.5,286046999.3,N
1610720875.3,286047002.4,N
1610720895.1,286047000.0,N
1610720915.9,286046998.8,N
1610720935.7,286047001.7,N
1610720955.5,286047000.3,N
1610720975.4,286046999.7,N
1610720995.2,286047000.0,N
1610721015.1,286047004.4,N
1610721016.0,286047004.4,N
1610721035.8,286047003.2,N
1610721055.6,286047000.0,N
1610721075.5,286047000.7,N
1610721095.3,286046998.6,N
1610721115.1,286046998.8,N
1610721135.9,286046999.3,N
1610721155.7,286046996.9,N
1610721175.6,286046997.2,N
1610721195.4,286046997.0,N
1610721215.2,286046996.9,N
1610721235.1,286047000.4,N
1610721236.0,286047000.4,N
1610721255.8,286046999.9,N
1610721275.7,286047001.2,N
1610721295.5,286046996.6,N
1610721315.3,286046999.0,N
1610721335.2,286046998.4,N
1610721355.0,286046999.4,N
1610721355.9,286046999.4,N
1610721375.8,286046999.2,N
1610721395.6,286046996.6,N
1610721415.4,286046995.2,N
1610721435.3,286046997.4,N
1610721455.1,286046997.4,N
1610721475.8,286046996.9,N
1610721495.7,286046999.6,N
1610721515.5,286046996.5,N
1610721535.4,286046996.9,N
1610721555.2,286046999.3,N
1610721575.0,286046998.6,N
1610721575.9,286046998.6,N
1610721595.8,286046996.7,N
1610721615.6,286046997.1,N
1610721635.4,286046997.3,N
1610721655.3,286046997.3,N
1610721675.1,286046996.9,N
1610721695.9,286046998.9,N
1610721715.7,286047000.4,N
1610721735.5,286046998.7,N
1610721755.4,286046996.6,N
1610721775.2,286047000.2,N
1610721795.1,286047001.9,N
1610721796.0,286047001.9,N
1610721815.8,286046999.9,N
1610721835.6,286046998.1,N
1610721855.5,286046997.0,N
1610721875.3,286046996.6,N
1610721895.1,286046998.9,N
1610721915.9,286046998.8,N
1610721935.7,286046998.6,N
1610721955.6,286046999.3,N
1610721975.4,286046998.9,N
1610721995.2,286046998.3,N
1610722015.1,286046999.2,N
1610722016.0,286046999.2,N
1610722035.8,286046999.1,N
1610722055.7,286046998.8,N
1610722075.5,286046999.3,N
1610722095.3,286046998.2,N
1610722115.2,286047000.7,N
1610722135.9,286046999.2,N
1610722155.7,286046998.6,N
1610722175.6,286047004.0,N
1610722195.4,286047004.1,N
1610722215.3,286047003.7,N
1610722235.1,286047002.8,N
1610722236.0,286047002.8,N
1610722255.8,286047004.3,N
1610722275.7,286047005.4,N
1610722295.5,286047008.8,Y
1610722315.3,286047004.6,P
1610722335.2,286047007.4,P
1610722355.0,286047004.9,N
1610722355.9,286047004.9,N
1610722375.8,286047004.1,N
1610722395.6,286047002.5,N
1610722415.4,286047000.0,N
1610722435.3,286047000.5,N
1610722455.1,286046998.1,N
1610722475.9,286046998.6,N
1610722495.7,286046999.2,N
1610722515.5,286046997.3,N
1610722535.4,286046994.9,N
1610722555.2,286046996.2,N
1610722575.0,286046994.9,N
1610722575.9,286046994.9,N
1610722595.8,286046997.0,N
1610722615.6,286046998.4,N
1610722635.5,286046996.9,N
1610722655.3,286046996.8,N
1610722675.1,286046997.2,N
1610722695.9,286047001.2,N
1610722715.7,286047000.8,N
1610722735.5,286046998.2,N
1610722755.4,286047000.2,N
1610722775.2,286046998.3,N
1610722795.1,286046998.6,N
1610722796.0,286046998.6,N
